ECMWFFLT2_prec_cthk_180.txt.gz
RH
51 50 50 51 52 53 53 52 51 50 50 48 41 35 34 34 31 26 19 16 15 15 15 15 14 14 13 13 12 12 11 11 10 10 9 9 8 8 7 6 6 5 5 5 4 4 4 4 4 4 4 4
50 48 49 49 50 51 52 52 50 50 49 43 38 35 34 33 29 23 18 16 16 16 15 15 15 14 13 13 12 12 12 11 11 10 9 9 8 7 6 5 5 5 4 4 4 4 4 4 4 4 4 4
47 47 47 48 49 49 50 51 50 48 44 38 36 35 35 32 27 22 18 17 17 16 16 15 14 14 13 12 12 11 11 10 10 9 8 7 7 6 6 5 4 4 4 4 4 4 4 4 4 4 4 4
44 45 46 47 47 48 48 48 47 44 40 37 36 36 34 31 25 21 19 18 18 17 16 15 14 13 13 12 11 10 9 9 8 7 7 6 6 5 5 4 4 4 4 4 4 4 4 4 4 4 4 4
40 41 44 46 46 47 46 44 43 41 39 37 36 34 31 27 22 19 18 18 18 17 16 15 14 13 12 11 10 9 8 7 7 6 6 5 5 4 4 4 4 4 4 4 4 4 4 4 4 4 4 4
37 37 40 44 44 44 42 41 40 39 37 35 33 30 27 24 20 18 17 16 16 15 14 13 12 11 10 9 9 8 7 7 6 6 5 5 5 4 4 4 4 4 4 4 4 4 4 4 4 4 5 5
36 35 35 38 40 40 39 38 37 36 34 32 30 27 24 22 19 16 15 14 13 11 10 9 8 7 7 6 6 6 6 6 6 5 5 4 4 4 4 4 4 4 4 4 4 4 4 4 5 5 5 5
37 36 35 34 35 35 34 34 35 34 33 31 28 26 24 21 18 17 16 14 12 10 8 7 6 5 5 5 5 5 5 5 5 5 5 4 4 4 4 4 4 4 4 4 5 5 5 5 5 5 5 5
39 37 36 34 33 32 31 32 32 32 31 30 27 25 22 19 18 18 16 15 13 11 10 8 7 6 6 6 6 6 5 5 5 5 5 4 4 4 4 5 5 5 5 5 5 5 5 6 6 6 6 7
40 39 37 34 33 33 32 31 30 30 30 28 25 23 20 18 17 16 15 13 11 10 10 9 8 8 7 7 7 6 6 5 5 5 5 5 5 5 5 5 5 5 5 6 6 6 6 7 7 7 7 7
39 38 37 35 33 32 32 31 30 29 28 26 24 21 19 17 16 14 12 10 9 8 7 7 7 7 7 7 7 7 6 6 5 5 5 5 5 5 5 5 6 6 6 6 7 7 7 8 8 8 8 8
38 37 36 36 34 30 29 29 28 27 26 24 22 20 17 16 15 13 11 9 8 7 6 6 6 6 6 6 6 6 6 6 6 5 5 5 6 6 6 6 6 7 7 7 8 8 8 8 9 9 9 9
36 36 36 36 35 30 27 26 25 24 23 22 21 18 16 15 14 12 10 8 7 7 6 6 6 6 6 7 6 6 6 6 6 5 6 6 6 6 6 7 7 7 8 8 8 9 9 9 9 10 10 10
34 34 36 37 35 31 26 23 22 21 20 20 18 16 15 14 13 10 9 8 7 7 6 7 7 7 7 7 6 6 6 6 6 6 6 6 7 7 7 8 8 8 9 9 9 10 10 10 10 10 10 11
33 33 35 36 34 30 25 21 19 18 17 17 15 13 12 12 11 10 8 8 7 7 7 7 7 7 7 7 7 6 6 6 6 6 7 7 7 8 8 8 9 9 10 10 10 11 11 11 11 11 11 11
33 34 35 35 34 30 24 19 17 16 16 14 12 11 11 11 10 9 8 7 7 7 7 8 7 7 7 7 7 6 6 7 7 7 8 8 8 9 9 9 10 10 11 11 11 12 12 12 12 12 12 12
33 34 35 35 33 28 24 19 17 16 15 13 11 10 11 11 9 7 7 7 7 7 7 7 7 7 7 7 7 6 7 7 7 8 8 9 9 10 10 10 11 12 12 12 12 13 13 13 13 13 13 13
34 35 34 33 30 27 23 19 17 16 14 12 10 10 11 11 9 7 7 7 7 7 7 7 7 7 6 6 7 7 7 8 8 9 9 10 10 11 11 12 12 13 13 13 14 14 14 14 14 15 15 15
35 35 34 31 28 25 23 21 18 17 14 12 11 11 13 12 9 8 8 8 8 8 8 7 7 7 7 7 8 8 8 9 9 10 10 11 12 12 13 14 14 14 14 15 15 15 16 16 16 16 17 17
34 32 29 28 27 26 25 24 21 18 17 15 14 15 15 14 11 10 9 9 9 9 8 7 7 7 7 8 8 9 9 10 10 11 12 12 13 14 14 15 15 15 15 16 16 16 17 17 18 18 18 18
30 26 24 23 24 24 25 24 21 19 19 18 18 18 17 15 13 12 11 10 9 8 8 7 7 7 8 9 9 10 10 11 12 12 14 14 15 15 16 16 16 16 16 17 17 17 18 18 19 19 19 19
26 24 23 21 21 21 21 20 18 16 16 16 17 17 16 14 13 11 10 9 8 8 8 7 8 8 9 10 10 11 12 12 13 14 15 16 16 16 16 16 16 16 17 17 18 18 19 19 19 20 20 20
24 23 22 21 21 20 19 18 17 15 16 16 17 17 15 14 12 10 9 8 8 8 8 8 8 9 10 11 12 13 13 14 15 15 16 16 16 16 16 17 17 17 17 17 18 19 19 20 20 20 20 20
25 24 23 22 22 22 21 20 19 18 19 18 17 17 15 13 11 9 8 8 8 8 8 9 9 10 11 12 13 14 15 15 16 16 17 17 17 17 16 17 17 17 18 18 19 20 20 21 21 21 21 21
25 25 25 25 25 24 23 23 23 22 21 19 18 16 14 12 10 9 9 8 8 9 9 10 11 12 12 13 14 15 16 16 16 17 17 17 17 17 16 17 17 17 18 19 19 20 21 22 22 22 23 23
20 20 20 21 22 23 22 23 23 22 20 18 16 14 12 11 11 10 9 9 9 10 11 11 12 13 14 14 15 16 17 17 17 17 17 17 17 17 17 17 18 18 19 20 21 22 22 23 23 23 24 24
18 18 18 18 18 19 19 20 21 20 19 16 13 12 11 11 11 11 11 10 11 11 12 12 13 13 14 15 16 17 17 18 17 17 17 17 17 17 18 18 19 19 20 21 23 24 24 24 24 25 26 25
21 20 21 21 20 20 20 21 20 20 18 15 12 11 10 10 11 12 13 12 12 12 13 13 14 14 15 16 17 18 18 18 18 18 17 17 18 19 19 20 21 21 22 23 24 25 25 25 26 27 26 24
25 24 25 24 24 24 24 23 22 20 18 15 14 13 13 12 13 14 15 14 13 13 14 14 14 15 15 16 17 18 18 18 18 18 18 19 20 21 22 23 23 24 24 24 24 24 25 26 26 26 26 26
29 27 27 28 28 28 27 27 25 23 21 19 18 17 17 17 17 17 18 16 15 14 14 14 14 15 16 17 18 19 19 19 19 19 20 21 23 24 25 26 26 26 25 25 24 24 25 25 25 25 26 27
34 32 30 30 31 31 31 31 30 28 26 24 22 21 20 20 21 21 21 20 16 13 12 13 14 15 17 18 20 21 22 22 22 22 23 24 26 26 26 27 26 26 26 26 26 26 26 26 26 26 26 26

ECMWFFLT2_prec_cthk_186.txt.gz
RH
71 70 69 69 65 63 61 57 54 53 51 49 47 46 45 44 45 45 46 44 41 41 42 41 41 39 37 32 27 23 20 19 18 17 16 16 15 15 15 14 14 13 13 13 12 12 12 11 11 11 11 11
71 69 68 68 64 61 59 55 53 51 50 48 46 45 44 44 45 45 44 42 41 42 42 41 41 39 35 30 27 23 20 19 18 17 16 16 15 15 15 14 14 14 13 13 12 12 12 11 11 11 11 11
70 69 66 65 62 59 56 54 52 50 49 46 44 43 42 43 45 46 45 42 43 42 42 42 42 38 33 28 25 22 20 19 18 17 17 16 16 15 15 15 14 14 14 13 13 12 12 12 12 12 12 11
70 69 66 64 60 58 55 52 50 48 46 43 42 41 40 41 44 47 47 44 43 42 42 42 40 36 31 27 24 21 20 19 18 18 17 17 17 16 16 15 15 15 14 14 13 13 13 13 13 12 12 11
70 68 65 62 58 55 52 49 47 45 41 40 39 39 39 40 43 44 45 44 43 41 40 40 38 34 29 26 23 21 20 19 19 18 18 17 17 17 17 17 16 15 14 14 13 13 13 13 12 11 11 10
69 67 62 58 55 52 49 47 44 42 39 37 36 36 36 37 39 41 42 43 42 41 40 38 34 30 28 26 23 21 20 19 19 18 17 17 17 17 17 17 16 16 15 14 13 13 12 12 11 10 9 9
68 66 62 57 54 52 49 47 43 40 39 37 35 34 34 35 37 39 41 43 43 43 40 35 31 28 26 24 22 20 20 19 19 18 17 17 16 16 16 16 15 15 15 14 14 13 12 12 10 10 8 8
66 66 63 58 54 52 49 46 42 40 38 37 36 35 34 35 36 38 40 42 43 42 38 33 29 27 26 23 21 20 20 20 19 18 18 17 16 16 15 13 13 13 13 12 12 12 11 11 10 9 8 7
64 65 63 56 52 51 47 44 42 40 39 38 37 36 34 34 34 35 37 39 40 39 36 33 29 27 25 23 22 21 20 20 20 19 18 17 17 16 15 13 12 10 10 9 9 9 8 8 8 7 7 6
62 63 61 54 50 48 44 42 40 38 38 36 35 34 33 32 33 34 35 36 37 36 36 33 30 26 24 22 22 22 21 20 19 19 18 17 17 16 16 15 14 13 11 10 9 8 7 7 6 6 6 6
56 56 53 47 44 42 38 36 34 33 33 31 30 29 29 29 30 31 32 32 33 34 33 32 29 25 22 22 21 21 21 21 19 18 17 16 16 16 15 15 15 15 14 13 12 11 10 9 8 8 7 7
48 48 47 43 42 40 38 36 33 33 32 31 30 29 28 27 27 28 28 28 29 29 28 27 26 23 22 21 21 21 21 21 19 18 17 16 15 14 13 13 12 12 12 12 11 11 11 10 10 9 9 8
46 48 50 48 45 43 41 38 36 34 34 33 31 30 29 27 27 28 28 28 27 25 24 23 23 21 20 20 20 21 20 20 19 17 16 15 14 13 12 11 11 10 10 9 9 8 8 8 8 8 8 8
47 51 54 53 49 46 44 41 38 36 35 34 32 31 29 27 27 27 27 27 27 26 24 22 21 20 18 19 19 20 19 18 17 16 15 14 13 12 11 11 10 10 9 9 9 8 7 7 7 7 7 7
45 50 55 55 53 49 46 43 39 36 36 35 34 32 30 28 27 27 27 27 27 27 26 23 22 21 19 19 20 19 18 16 15 14 13 12 12 11 10 10 10 9 9 9 9 8 8 8 7 7 7 7
43 48 54 57 56 53 48 43 39 36 35 35 34 32 30 28 28 27 28 28 28 28 27 26 24 23 21 21 21 20 18 16 14 12 11 11 10 9 9 9 9 9 9 9 8 9 8 8 8 7 7 7
42 46 52 57 58 56 50 44 39 36 34 34 33 32 31 29 29 29 29 29 29 29 28 27 26 24 22 22 22 21 19 16 14 12 11 10 9 9 8 8 8 8 8 8 8 9 9 8 8 8 8 8
40 44 50 56 58 58 53 45 39 36 34 34 34 33 32 31 31 31 31 31 30 30 29 28 27 26 24 22 22 21 19 16 14 13 11 10 9 9 8 8 8 8 8 8 8 8 8 8 8 8 8 8
39 44 49 54 55 56 55 48 41 37 35 35 34 33 32 32 33 33 33 31 30 30 30 30 29 28 26 24 23 22 20 17 15 13 11 10 9 9 9 9 8 8 8 8 8 8 8 8 8 8 8 8
37 42 48 52 53 53 53 49 42 38 36 35 35 34 34 34 34 34 33 31 30 30 31 31 31 30 28 26 25 24 22 19 17 14 13 12 11 11 10 10 10 9 9 8 8 9 9 9 8 8 8 8
35 40 45 49 51 51 50 48 43 38 36 36 36 36 35 35 34 34 33 32 31 32 32 33 32 31 29 27 27 27 26 23 20 18 16 15 14 13 12 12 12 11 10 10 9 9 9 9 9 9 9 10
34 38 42 45 46 47 46 45 41 38 37 37 37 37 37 36 34 34 34 34 34 34 35 35 33 32 29 26 26 27 27 24 22 20 19 19 18 17 16 15 14 13 12 12 12 11 10 10 11 11 11 11
33 35 37 40 42 43 43 42 40 38 37 37 37 38 39 38 36 36 36 36 36 36 37 37 36 33 30 27 26 25 25 23 20 18 17 17 17 16 16 15 14 14 13 12 12 11 11 11 12 12 12 12
29 29 30 32 33 35 37 38 39 38 38 38 39 40 41 41 40 39 39 38 38 38 39 39 38 35 31 29 27 27 25 22 19 15 14 14 14 13 13 12 12 12 11 11 11 11 11 11 12 12 13 13
25 26 26 26 27 27 29 30 32 34 35 37 38 39 40 41 41 39 38 38 38 38 39 39 39 36 33 32 31 31 29 25 21 18 15 14 14 13 12 11 10 11 11 11 11 12 12 12 12 13 13 13
24 24 25 25 26 26 27 27 27 29 31 31 32 33 35 36 37 36 36 35 36 36 37 37 35 33 31 31 32 32 30 28 25 21 18 17 15 14 12 11 11 12 12 12 12 13 13 13 13 14 14 14
25 25 25 26 26 27 27 28 28 28 28 28 28 28 30 31 34 34 34 34 35 36 36 35 32 30 28 28 28 28 28 26 23 20 17 14 13 12 11 11 11 11 12 12 13 14 14 14 14 14 14 14
27 27 27 27 28 28 29 30 30 30 30 29 29 29 31 33 36 37 37 37 37 37 37 35 33 30 29 29 28 28 28 27 24 20 16 12 11 11 11 10 11 12 12 12 13 15 15 15 16 15 15 15
27 28 29 29 30 30 31 32 33 33 33 33 32 32 34 37 39 40 41 42 42 41 40 39 36 34 33 32 32 31 31 31 28 24 19 14 12 12 12 11 12 13 13 14 15 16 16 17 17 16 16 16
28 28 30 31 32 33 34 35 35 36 36 36 35 35 36 38 39 41 43 44 45 45 44 42 40 38 37 36 35 34 34 34 32 29 24 19 15 14 13 13 14 14 15 16 17 17 18 18 18 18 18 18
32 32 32 32 33 34 35 36 37 38 38 39 38 38 38 39 41 42 45 47 48 49 47 45 43 41 40 39 38 37 36 35 35 33 30 25 20 17 16 16 16 16 17 18 19 20 20 20 20 20 20 20

ECMWFFLT2_prec_cthk_192.txt.gz
RH
63 64 66 68 69 69 70 71 72 73 73 73 73 72 70 68 64 62 61 61 59 58 57 54 54 55 57 55 50 42 40 43 44 44 42 36 32 28 24 23 23 22 22 21 19 17 17 16 16 18 19 22
65 66 68 70 71 72 72 73 74 74 75 75 75 71 68 65 62 60 60 60 59 58 56 55 53 52 53 53 47 40 39 40 39 38 34 30 27 26 24 23 22 22 21 20 19 18 17 16 16 16 17 18
68 70 72 73 73 74 75 75 76 76 76 76 73 69 66 64 61 59 57 56 54 54 52 51 50 48 47 46 45 43 41 38 37 35 32 30 28 26 24 22 22 21 20 19 19 17 16 16 16 16 16 16
73 74 75 75 75 76 76 76 77 76 75 74 71 67 65 63 61 57 53 51 49 48 47 46 45 44 44 44 45 46 43 39 37 35 32 30 28 26 23 22 22 21 20 19 18 17 16 16 16 16 16 16
73 76 77 78 78 78 78 78 78 76 73 72 69 66 63 61 59 55 52 50 48 46 44 43 42 42 43 43 43 44 41 38 35 33 30 29 27 25 22 22 21 20 19 18 17 17 16 16 16 16 16 17
71 74 76 78 78 79 79 79 78 75 71 69 67 64 61 59 56 55 53 51 47 43 40 39 39 39 40 40 40 40 38 35 33 30 29 29 27 24 21 20 20 19 18 17 16 16 16 16 16 16 16 16
70 73 75 76 77 78 78 79 77 75 71 67 64 61 58 57 56 54 51 47 43 40 37 36 36 36 36 37 37 36 34 33 31 29 28 28 27 24 21 19 18 18 17 16 16 15 15 15 16 16 16 16
71 72 74 75 75 75 76 76 76 74 72 66 61 58 56 56 54 51 46 43 40 37 36 36 35 35 34 35 34 33 32 31 29 28 28 28 27 24 21 19 18 17 16 16 15 15 15 15 15 15 16 16
72 72 73 74 73 73 74 75 74 73 71 65 58 55 54 53 51 47 42 39 38 36 36 36 36 35 35 35 34 33 32 31 29 27 26 27 26 25 23 20 17 16 16 15 15 15 15 15 15 15 15 15
72 73 73 74 73 73 74 74 73 72 70 64 57 54 53 51 47 44 40 38 37 36 36 36 36 36 36 36 35 34 33 31 29 27 24 24 24 23 22 20 18 16 14 14 14 15 14 15 15 15 16 16
67 71 73 74 74 75 75 75 74 72 70 66 60 56 53 49 45 42 39 38 38 37 37 37 36 35 35 34 34 32 31 30 29 26 22 20 19 19 18 17 16 14 12 12 12 13 13 14 14 15 15 16
62 66 71 73 75 76 76 76 75 74 73 70 63 57 53 49 46 43 40 38 38 37 36 35 33 33 33 32 32 31 30 29 28 26 23 20 18 17 16 15 14 13 12 10 10 10 11 11 12 13 14 15
59 62 66 70 74 75 76 77 77 77 77 74 65 56 52 48 45 41 38 36 35 34 33 32 31 32 32 32 32 31 30 30 29 28 25 22 19 18 17 15 14 13 12 11 9 9 9 9 10 11 12 13
57 59 61 64 68 71 73 74 75 75 76 74 64 54 49 46 42 39 36 33 32 32 32 32 32 33 33 34 33 33 32 31 31 30 28 25 21 19 18 17 15 14 12 11 10 9 9 9 10 10 11 12
55 57 57 58 60 63 65 67 70 70 71 71 61 50 47 43 40 38 35 33 32 33 33 33 34 34 35 35 34 34 33 33 33 32 30 28 24 21 19 18 16 15 13 12 11 10 10 10 11 11 11 12
55 55 56 56 57 57 59 61 63 65 64 62 56 50 46 43 41 39 37 35 34 34 34 34 35 35 35 35 34 34 34 34 34 33 32 30 26 22 21 19 18 16 15 13 12 11 11 10 11 11 11 12
53 54 55 56 56 56 57 57 59 59 55 53 53 53 50 45 42 40 39 36 35 34 35 35 35 35 34 34 33 33 34 34 33 33 32 30 27 24 22 20 19 17 16 15 13 11 11 11 11 11 12 13
49 51 52 54 55 55 55 55 55 55 51 50 53 56 55 51 47 43 41 39 37 36 36 36 36 35 34 33 33 33 33 33 33 33 32 31 28 26 24 22 20 18 17 16 15 13 12 11 11 12 12 13
47 48 49 51 52 53 53 52 53 52 51 51 52 52 55 57 54 47 43 42 40 38 37 37 37 36 35 34 33 33 33 33 33 33 33 31 30 28 25 25 23 20 18 17 16 14 13 12 12 12 13 13
48 49 49 48 47 48 49 48 48 50 50 50 49 48 51 56 57 51 46 45 43 40 39 38 38 37 36 35 34 34 34 34 34 34 34 33 32 30 28 27 26 23 20 18 17 16 14 14 13 14 14 15
47 48 50 49 46 43 43 44 44 43 44 46 46 45 46 49 54 53 47 46 45 42 40 39 39 38 37 36 35 35 35 35 35 35 35 35 33 32 31 30 28 26 23 21 19 18 17 16 15 15 15 15
44 45 47 49 48 43 39 38 38 38 39 41 43 44 45 46 50 52 49 46 47 45 42 41 40 40 39 38 37 37 36 36 36 36 36 36 34 33 32 32 30 28 26 23 22 21 19 18 17 17 16 16
42 44 44 45 47 46 41 37 36 37 38 40 43 46 47 48 48 49 49 48 48 47 45 44 43 42 41 40 39 38 37 37 37 37 36 36 35 34 33 33 32 30 28 25 23 23 22 21 20 19 18 18
38 42 44 44 45 46 46 42 38 38 40 42 45 47 49 50 50 48 49 49 49 48 47 46 45 44 42 41 41 40 39 38 37 37 37 37 36 35 35 34 33 32 30 27 25 25 24 24 23 22 21 20
36 38 40 42 42 43 44 45 44 41 41 42 43 45 47 49 50 49 49 48 48 48 48 47 46 45 44 43 42 42 41 39 38 38 38 38 37 37 36 36 35 34 32 29 28 26 26 25 25 24 23 22
34 35 35 36 37 37 38 39 40 39 37 37 37 38 39 41 43 45 45 46 47 47 47 47 47 46 46 45 44 44 43 41 40 39 39 39 38 37 37 36 35 35 32 30 28 26 26 25 25 24 23 22
29 31 31 31 31 31 32 32 33 32 31 31 31 31 32 34 36 39 40 42 44 45 46 47 48 48 47 46 46 46 45 44 43 42 42 41 40 39 38 36 36 35 32 30 28 27 26 25 24 23 22 21
24 27 29 29 29 29 30 30 30 30 30 29 28 28 29 30 32 34 36 38 41 43 45 46 47 48 48 48 48 48 47 47 46 45 45 44 43 41 40 38 37 37 35 33 30 29 28 27 27 25 23 20
23 25 27 29 29 30 30 30 30 30 31 31 30 30 30 30 31 32 33 34 36 39 42 45 47 48 48 49 49 49 49 48 48 48 47 46 45 44 43 41 41 40 39 37 35 34 32 31 30 29 27 24
25 26 27 28 29 29 29 30 31 31 32 33 33 34 34 34 34 34 35 35 35 37 39 40 43 45 47 48 49 50 50 50 50 50 49 48 48 48 47 46 45 44 43 42 41 40 38 36 34 33 32 31
27 27 28 29 29 29 30 31 32 33 34 35 36 36 37 37 37 38 38 39 39 39 39 39 40 41 43 45 46 48 49 50 51 51 51 51 51 51 51 51 49 48 48 47 46 45 44 42 40 38 37 36

ECMWFFLT2_prec_cthk_198.txt.gz
RH
74 73 72 71 71 71 70 69 70 71 71 73 74 76 76 76 76 77 78 77 75 74 70 67 68 63 58 54 51 50 47 45 44 43 45 44 41 38 35 31 29 29 28 27 25 24 22 21 22 21 25 35
76 73 73 72 73 73 72 71 71 71 71 72 73 74 74 74 74 75 75 73 72 70 67 63 64 63 58 55 52 49 46 45 43 41 41 38 35 33 31 29 28 28 27 27 25 24 23 22 22 21 24 33
75 74 74 75 75 74 74 73 72 73 74 73 73 73 72 72 72 73 73 72 71 69 66 61 59 59 56 53 50 47 45 44 42 40 38 35 33 32 31 30 27 26 25 26 26 24 24 23 23 22 24 28
70 72 74 76 76 76 76 75 74 74 75 75 74 73 72 72 72 72 73 72 70 68 64 59 56 54 52 50 47 45 44 43 41 39 37 34 33 32 31 30 28 26 24 25 26 25 25 24 23 22 23 24
67 69 73 75 76 76 76 75 75 74 74 76 75 73 72 72 71 72 72 71 70 67 62 58 54 52 51 50 46 44 43 42 41 38 36 34 33 32 30 30 28 26 26 25 26 26 25 24 24 22 23 22
69 70 72 74 75 75 75 75 74 73 73 74 74 73 73 72 72 71 70 70 68 66 63 58 54 53 53 52 48 45 44 42 40 38 36 34 33 32 31 30 29 28 27 27 26 26 26 25 24 23 23 22
69 71 72 73 74 75 75 75 74 73 72 71 72 72 72 71 70 68 67 68 67 66 63 58 56 55 53 52 49 45 45 42 39 37 35 34 33 32 32 31 30 29 28 28 27 27 27 26 25 24 23 22
62 65 67 68 70 72 73 74 74 73 72 71 71 70 70 69 67 67 67 66 64 62 61 58 57 55 52 51 49 46 45 41 38 37 35 34 33 33 33 32 31 31 30 29 28 27 26 25 24 23 22 22
54 56 58 61 63 66 69 71 72 73 72 72 71 70 69 68 65 64 63 61 60 59 59 58 57 53 50 49 48 46 44 40 38 37 36 35 35 34 33 34 33 33 32 30 29 27 25 24 23 22 21 21
51 52 53 55 57 60 64 67 70 72 73 72 71 70 69 67 63 59 58 57 59 61 58 55 53 50 47 47 47 45 42 38 36 36 36 36 36 35 35 35 35 34 34 32 30 28 25 24 23 22 21 20
52 52 52 54 55 57 60 63 66 68 70 71 72 71 70 68 64 60 58 56 57 58 53 48 46 45 45 45 45 44 41 38 36 37 37 38 38 37 37 36 36 35 35 33 31 29 27 25 23 21 20 19
55 54 53 54 54 56 57 59 62 64 66 69 70 72 71 70 68 65 61 58 56 53 50 46 43 44 45 45 44 43 42 40 39 39 40 41 40 39 39 37 36 35 34 33 31 29 28 25 23 21 19 18
57 56 55 55 55 55 57 58 61 62 65 67 69 71 71 71 71 69 65 60 57 54 51 49 47 48 48 48 46 46 45 44 42 42 42 42 42 40 39 37 35 34 32 32 31 29 28 27 25 22 20 18
58 57 57 57 58 58 58 59 60 62 64 66 69 70 70 69 69 69 65 59 58 56 53 52 52 51 52 51 50 49 48 46 45 44 43 42 41 39 37 36 34 33 32 31 31 30 29 28 27 25 23 21
60 59 59 60 61 62 62 62 62 63 64 66 68 69 70 69 68 69 64 56 54 55 55 55 54 53 53 53 52 51 49 46 44 42 42 40 39 38 37 36 35 34 33 32 31 31 30 29 28 27 26 23
62 62 62 63 64 64 64 63 63 62 63 63 65 66 67 68 68 67 61 52 51 53 55 56 55 54 53 53 52 50 47 45 43 42 41 40 39 38 37 36 35 34 33 32 32 31 30 30 30 29 27 25
64 64 65 66 66 66 64 63 62 61 60 60 61 61 62 63 62 61 57 53 53 53 53 54 54 53 52 51 50 48 47 45 44 42 41 40 39 37 37 36 35 34 33 32 32 32 31 31 31 30 29 28
67 68 68 68 67 66 65 63 61 60 59 58 57 57 57 57 56 56 56 56 58 58 57 54 53 52 51 51 50 49 48 46 45 43 41 40 38 37 37 36 35 35 33 33 33 32 32 31 31 31 31 30
70 70 70 69 68 67 65 63 61 59 58 57 57 57 57 56 55 55 55 54 55 57 57 53 49 49 49 49 50 50 50 48 46 44 42 41 39 38 37 37 36 35 34 34 33 33 33 33 32 32 32 31
71 72 71 69 67 66 64 62 60 59 57 57 58 58 57 57 56 54 52 51 50 51 52 49 46 45 45 47 48 49 50 50 48 46 44 42 41 40 38 38 37 36 36 35 35 34 34 34 34 34 33 33
72 72 70 69 67 65 64 63 62 60 59 59 59 58 57 56 53 50 48 46 45 46 46 45 44 43 43 45 47 49 50 51 50 49 48 46 44 43 42 41 40 39 38 37 37 37 36 36 36 35 35 34
72 72 71 69 66 65 64 63 63 62 61 60 60 59 58 56 52 48 45 42 41 41 41 41 41 43 44 46 48 50 51 51 51 50 50 51 49 47 46 45 43 43 42 40 38 38 37 37 36 35 35 35
71 72 71 68 64 63 63 62 62 61 61 60 59 57 56 53 49 45 42 40 39 39 39 39 40 43 47 50 51 52 52 53 54 52 52 54 53 51 49 48 47 45 44 42 40 39 38 37 36 35 35 35
71 72 71 69 65 63 62 62 62 62 61 60 58 54 51 48 45 42 39 37 37 38 38 39 40 43 47 52 54 55 56 56 57 57 57 58 57 55 52 50 48 47 45 43 41 39 38 38 37 36 35 35
70 73 73 72 69 66 63 62 61 60 58 56 54 52 49 46 44 41 38 36 35 35 36 38 40 43 46 51 56 58 58 58 59 59 60 59 58 57 55 52 49 47 46 44 44 43 41 40 38 36 36 36
70 72 73 71 69 65 61 58 55 53 52 51 51 51 51 49 46 43 40 37 36 35 35 36 38 40 43 48 53 56 56 57 58 58 57 56 55 54 53 51 49 47 46 46 47 45 43 41 40 39 39 39
68 68 67 66 63 59 55 52 51 50 50 50 51 52 53 52 50 46 43 41 38 36 36 36 36 38 40 43 47 50 51 52 52 52 52 52 52 51 51 51 49 48 48 48 49 48 46 46 46 46 45 43
63 63 62 61 59 56 52 49 49 49 49 50 51 51 51 51 49 47 45 43 41 39 38 38 37 37 38 40 42 45 47 48 49 49 50 51 51 50 51 51 51 50 50 50 51 51 51 51 50 48 47 46
63 62 60 59 57 55 53 50 49 48 48 49 49 49 48 47 46 45 44 43 41 41 40 39 38 37 37 37 39 40 43 45 47 48 49 51 51 51 51 52 52 52 52 52 52 52 53 53 52 51 49 48
65 62 59 57 56 56 55 54 52 51 50 49 47 46 46 46 46 46 45 44 43 42 41 40 39 37 37 36 37 38 39 40 42 43 45 47 49 50 51 52 52 53 53 53 53 53 54 54 54 52 50 50
70 67 63 60 59 59 58 57 56 54 52 49 48 47 48 48 48 47 45 44 43 42 41 40 39 38 38 38 38 39 39 40 41 42 44 45 46 48 49 50 51 53 53 54 55 54 54 54 53 52 51 51